Location: Wells
(51.2093°N, 2.6446°W)
Time: 08:56:53
(UTC+01:00)

SO-50 - Pass Details

Date: 16 March 2026
Orbit: 567 x 673 km, 64.6° (Epoch: 17 April)

Event Time Altitude Azimuth Distance (km) Brightness Sun altitude
Rises 20:14:32 0° 264° (W) 2,970 ? -18.8°
Reaches altitude 10° 20:17:10 10° 277° (W) 2,076 ? -19.2°
Maximum altitude 20:21:07 26° 334° (NNW) 1,322 ? -19.8°
Drops below altitude 10° 20:25:09 10° 31° (NNE) 2,112 ? -20.3°
Enters shadow 20:26:56 - 41° (NE) 2,714 ? -20.6°
